Location: Bidart
(43.4376°N, 1.5913°W)
Time: 07:21:36
(UTC+00:00)

USA 229 DEB - Pass Details

Date: 22 April 2026
Orbit: 844 x 1364 km, 63.4° (Epoch: 10 January)

Event Time Altitude Azimuth Distance (km) Brightness Sun altitude
Rises 01:45:13 0° 316° (NW) 4,085 7.0 -29.9°
Reaches altitude 10° 01:48:09 10° 307° (NW) 3,190 6.2 -29.6°
Enters shadow 01:52:16 27° 280° (W) 2,235 5.1 -29.3°
